This is the latest recevied weather packets stored in our database for station/object BM2MWA-13. If no packets are shown the sender has not sent any weather packets the latest 10 day(s).
| Time | Temp. | Humidity | Pressure | Rain* | Wind** | Luminosity | Snow |
|---|---|---|---|---|---|---|---|
| 1778003824 | 20.56° C | 96% | 1009.2 hPa | 1.52 mm | - | - | - |
| 1778003223 | 20.56° C | 97% | 1009.3 hPa | 1.02 mm | - | - | - |
| 1778002624 | 20.56° C | 97% | 1009.3 hPa | 1.02 mm | - | - | - |
| 1778002023 | 20.56° C | 97% | 1009.5 hPa | 0.51 mm | - | - | - |
| 1778001423 | 20.56° C | 97% | 1009.5 hPa | 0 mm | - | - | - |
| 1778000823 | 20.56° C | 95% | 1009.8 hPa | 0 mm | - | - | - |
| 1778000223 | 20.56° C | 97% | 1009.8 hPa | 0 mm | - | - | - |
| 1777999624 | 20.56° C | 97% | 1009.9 hPa | 0 mm | - | - | - |
| 1777999023 | 20.56° C | 97% | 1009.8 hPa | 0 mm | - | - | - |
| 1777998424 | 20.56° C | 96% | 1010 hPa | 0 mm | - | - | - |
| 1777997824 | 20.56° C | 96% | 1010.2 hPa | 0.51 mm | - | - | - |
| 1777997223 | 20.56° C | 97% | 1010.4 hPa | 0.51 mm | - | - | - |
| 1777996623 | 20.56° C | 97% | 1010.5 hPa | 0.51 mm | - | - | - |
| 1777996023 | 20.56° C | 96% | 1010.7 hPa | 0.51 mm | - | - | - |
| 1777995424 | 20.56° C | 96% | 1010.7 hPa | 0.51 mm | - | - | - |
| 1777994824 | 20.56° C | 96% | 1010.7 hPa | 0.51 mm | - | - | - |
| 1777994224 | 20.56° C | 96% | 1010.8 hPa | 0.51 mm | - | - | - |
| 1777993624 | 21.11° C | 96% | 1010.9 hPa | 0.51 mm | - | - | - |
| 1777993025 | 21.11° C | 96% | 1010.6 hPa | 0.51 mm | - | - | - |
| 1777992423 | 21.11° C | 95% | 1010.5 hPa | 1.02 mm | - | - | - |
| 1777991824 | 21.11° C | 95% | 1010.4 hPa | 1.02 mm | - | - | - |
| 1777991225 | 20.56° C | 96% | 1010.7 hPa | 1.52 mm | - | - | - |
| 1777990624 | 20.56° C | 96% | 1011 hPa | 1.52 mm | - | - | - |
| 1777990024 | 20.56° C | 96% | 1011 hPa | 2.03 mm | - | - | - |
| 1777989424 | 20.56° C | 97% | 1011 hPa | 2.54 mm | - | - | - |
* Rain latest hour (hover to see other rain measurements)
** Current wind speed in m/s (hover to see current wind gust speed)